Flag for Ireland Weather past 2 weeks in Waterford, Ireland

Now
36 °F

Passing clouds.


Feels Like: 29 °F
Forecast: 35 / 49 °F
Wind: 9 mph from West

Location: Cork Airport

Current Time: Mar 4, 2015 at 7:21:28 AM

Latest Report: Mar 4, 2015 at 7:00 AM


Visibility: N/A

Pressure: 30.45 "Hg

Humidity: 87%

Dew point: 32 °F

Location of WaterfordLocation

Historic Weather in Waterford — Graph

°F

Waterford temperature yesterday

Maximum temperature yesterday: 43 °F (at 2:30 PM)
Minimum temperature yesterday: 28 °F (at 5:00 AM)
Average temperature yesterday: 36 °F

Past Weeks' High & Low Weather Summary

 TemperatureHumidityPressure
High55 °F (Feb 25, 12:30 PM)100% (Feb 17, 8:30 PM)30.63 "Hg (Feb 17, 8:30 PM)
Low28 °F (Mar 3, 5:00 AM)66% (Feb 21, 1:30 PM)29.12 "Hg (Feb 23, 2:30 PM)
Average42 °F90%29.83 "Hg
* Reported Feb 17 6:00 AM — Mar 4 6:00 AM, Waterford, Weather by CustomWeather, © 2015

Note: Actual official high and low records may vary slightly from our data, if they occured in-between our weather recording intervals... More about our weather records

Advertising

Waterford weather history for previous 24 hours

 ConditionsComfort  
Time TempWeatherWind HumidityBarometerVisibility
6:00 AM
Wed, Mar 4
34 °FPassing clouds.12 mph93%30.42 "HgN/A
5:30 AM34 °FPassing clouds.12 mph93%30.42 "HgN/A
5:00 AM34 °FPassing clouds.13 mph93%30.39 "HgN/A
4:30 AM34 °FPassing clouds.8 mph93%30.39 "HgN/A
3:30 AM34 °FPassing clouds.7 mph93%30.36 "HgN/A
3:00 AM34 °FPassing clouds.12 mph100%30.33 "HgN/A
2:30 AM34 °FPassing clouds.7 mph100%30.33 "HgN/A
2:00 AM34 °FPassing clouds.9 mph100%30.30 "HgN/A
1:30 AM34 °FPassing clouds.10 mph100%30.30 "HgN/A
1:00 AM34 °FPassing clouds.16 mph100%30.30 "HgN/A
12:30 AM36 °FPassing clouds.10 mph87%30.30 "HgN/A
12:00 AM36 °FPassing clouds.12 mph87%30.27 "HgN/A
11:30 PM
Tue, Mar 3
36 °FPassing clouds.12 mph87%30.27 "HgN/A
11:00 PM36 °FPassing clouds.15 mph87%30.27 "HgN/A
10:30 PM36 °FSprinkles. Passing clouds.22 mph93%30.27 "HgN/A
10:00 PM36 °FPassing clouds.13 mph93%30.24 "HgN/A
9:30 PM36 °FSprinkles. Passing clouds.15 mph93%30.24 "HgN/A
9:00 PM37 °FPassing clouds.14 mph81%30.21 "HgN/A
8:30 PM36 °FPassing clouds.10 mph87%30.18 "HgN/A
8:00 PM36 °FPassing clouds.10 mph93%30.18 "HgN/A
7:30 PM37 °FPassing clouds.14 mph87%30.15 "HgN/A
7:00 PM37 °FPassing clouds.10 mph87%30.15 "HgN/A
6:30 PM37 °FPassing clouds.3 mph87%30.12 "HgN/A
6:00 PM37 °FScattered clouds.14 mph93%30.12 "HgN/A
5:30 PM39 °FScattered clouds.7 mph87%30.09 "HgN/A
5:00 PM37 °FScattered clouds.15 mph93%30.09 "HgN/A
4:30 PM41 °FPartly sunny.16 mph70%30.07 "HgN/A
4:00 PM41 °FPassing clouds.16 mph70%30.07 "HgN/A
3:30 PM41 °FPassing clouds.25 mph76%30.04 "HgN/A
3:00 PM43 °FPassing clouds.22 mph66%30.04 "HgN/A
2:30 PM43 °FPassing clouds.20 mph71%30.01 "HgN/A
2:00 PM41 °FPassing clouds.22 mph66%30.01 "HgN/A
1:30 PM41 °FPassing clouds.22 mph66%30.01 "HgN/A
1:00 PM41 °FScattered clouds.20 mph76%30.01 "HgN/A
12:30 PM41 °FScattered clouds.16 mph81%30.01 "HgN/A
12:00 PM39 °FPassing clouds.14 mph87%30.01 "HgN/A
11:30 AM37 °FScattered clouds.22 mph87%30.01 "HgN/A
11:00 AM36 °FScattered clouds.13 mph100%29.98 "HgN/A
10:30 AM37 °FPartly sunny.16 mph87%29.98 "HgN/A
10:00 AM36 °FPassing clouds.12 mph93%29.98 "HgN/A
9:30 AM34 °FScattered clouds.12 mph93%29.95 "HgN/A
9:00 AM32 °FPassing clouds.10 mph100%29.95 "HgN/A
8:30 AM32 °FPassing clouds.12 mph100%29.92 "HgN/A
8:00 AM32 °FPassing clouds.10 mph93%29.92 "HgN/A
7:30 AM32 °FScattered clouds.9 mph93%29.92 "HgN/A
7:00 AM32 °FPassing clouds.10 mph100%29.92 "HgN/A
Weather by CustomWeather, © 2015

See weather overviewHow to use our weather pages